| time (UTC) | temp C | wind direction | speed KPH | gust KPH | rain 1hr cm | rain 24hr cm | rain mn cm | humidity % | barometer mb |
| 20260906083052 | 32 | 46 | 12.9 | 20.9 | 0.00 | 0.00 | 0.00 | 31 | 1016.7 |
| 20260906082527 | 32 | 82 | 9.7 | 22.5 | 0.00 | 0.00 | 0.00 | 31 | 1016.7 |
| 20260906082027 | 32 | 343 | 12.9 | 22.5 | 0.00 | 0.00 | 0.00 | 31 | 1016.7 |
| 20260906081553 | 31 | 47 | 8.0 | 17.7 | 0.00 | 0.00 | 0.00 | 32 | 1016.7 |
| 20260906081027 | 31 | 68 | 6.4 | 20.9 | 0.00 | 0.00 | 0.00 | 31 | 1016.7 |
| 20260906080528 | 31 | 350 | 8.0 | 20.9 | 0.00 | 0.00 | 0.00 | 32 | 1016.7 |
| 20260906080050 | 31 | 5 | 6.4 | 17.7 | 0.00 | 0.00 | 0.00 | 32 | 1016.8 |
| 20260906075527 | 31 | 355 | 9.7 | 17.7 | 0.00 | 0.00 | 0.00 | 32 | 1016.7 |
| 20260906075028 | 31 | 355 | 0.0 | 6.4 | 0.00 | 0.00 | 0.00 | 33 | 1016.8 |
| 20260906074556 | 30 | 314 | 3.2 | 6.4 | 0.00 | 0.00 | 0.00 | 33 | 1016.8 |
| 20260906074026 | 31 | 238 | 0.0 | 6.4 | 0.00 | 0.00 | 0.00 | 33 | 1016.7 |
| 20260906073526 | 30 | 0 | 1.6 | 11.3 | 0.00 | 0.00 | 0.00 | 34 | 1016.8 |
| 20260906073051 | 30 | 252 | 4.8 | 11.3 | 0.00 | 0.00 | 0.00 | 34 | 1016.7 |
| 20260906072526 | 30 | 0 | 0.0 | 8.0 | 0.00 | 0.00 | 0.00 | 34 | 1016.7 |
| 20260906072027 | 30 | 0 | 1.6 | 8.0 | 0.00 | 0.00 | 0.00 | 34 | 1016.7 |
| 20260906071544 | 29 | 196 | 1.6 | 8.0 | 0.00 | 0.00 | 0.00 | 35 | 1016.6 |
| 20260906071027 | 29 | 292 | 3.2 | 8.0 | 0.00 | 0.00 | 0.00 | 35 | 1016.6 |
| 20260906070533 | 29 | 273 | 1.6 | 8.0 | 0.00 | 0.00 | 0.00 | 36 | 1016.5 |
| 20260906070043 | 29 | 258 | 1.6 | 8.0 | 0.00 | 0.00 | 0.00 | 35 | 1016.5 |
| 20260906065526 | 29 | 240 | 0.0 | 9.7 | 0.00 | 0.00 | 0.00 | 36 | 1016.4 |
| 20260906065027 | 28 | 286 | 3.2 | 9.7 | 0.00 | 0.00 | 0.00 | 36 | 1016.4 |
| 20260906064546 | 28 | 256 | 0.0 | 4.8 | 0.00 | 0.00 | 0.00 | 36 | 1016.3 |
| 20260906064026 | 28 | 0 | 0.0 | 4.8 | 0.00 | 0.00 | 0.00 | 36 | 1016.2 |
| 20260906063526 | 28 | 0 | 0.0 | 8.0 | 0.00 | 0.00 | 0.00 | 37 | 1016.3 |
| 20260906063047 | 28 | 221 | 4.8 | 8.0 | 0.00 | 0.00 | 0.00 | 37 | 1016.1 |
| 20260906062526 | 28 | 261 | 1.6 | 6.4 | 0.00 | 0.00 | 0.00 | 37 | 1016.1 |
| 20260906062026 | 28 | 271 | 3.2 | 6.4 | 0.00 | 0.00 | 0.00 | 38 | 1016.1 |
| 20260906061544 | 28 | 259 | 1.6 | 6.4 | 0.00 | 0.00 | 0.00 | 38 | 1016.0 |
| 20260906061027 | 27 | 267 | 0.0 | 6.4 | 0.00 | 0.00 | 0.00 | 38 | 1015.9 |
| 20260906060526 | 27 | 267 | 1.6 | 6.4 | 0.00 | 0.00 | 0.00 | 38 | 1015.9 |
| 20260906060040 | 28 | 264 | 3.2 | 6.4 | 0.00 | 0.00 | 0.00 | 37 | 1015.9 |
| 20260906055526 | 28 | 249 | 1.6 | 6.4 | 0.00 | 0.00 | 0.00 | 38 | 1015.8 |
| 20260906055026 | 27 | 180 | 3.2 | 6.4 | 0.00 | 0.00 | 0.00 | 37 | 1015.8 |
| 20260906054545 | 27 | 0 | 1.6 | 4.8 | 0.00 | 0.00 | 0.00 | 40 | 1015.7 |
| 20260906054027 | 27 | 0 | 1.6 | 4.8 | 0.00 | 0.00 | 0.00 | 40 | 1015.7 |
| 20260906053527 | 27 | 120 | 1.6 | 6.4 | 0.00 | 0.00 | 0.00 | 40 | 1015.8 |
| 20260906053040 | 27 | 90 | 0.0 | 6.4 | 0.00 | 0.00 | 0.00 | 39 | 1015.7 |
| 20260906052526 | 26 | 0 | 1.6 | 6.4 | 0.00 | 0.00 | 0.00 | 39 | 1015.8 |
| 20260906052027 | 26 | 0 | 0.0 | 8.0 | 0.00 | 0.00 | 0.00 | 41 | 1015.9 |
| 20260906051540 | 26 | 0 | 1.6 | 8.0 | 0.00 | 0.00 | 0.00 | 40 | 1015.9 |
| 20260906051026 | 26 | 0 | 0.0 | 4.8 | 0.00 | 0.00 | 0.00 | 40 | 1015.8 |
| 20260906050526 | 26 | 0 | 1.6 | 6.4 | 0.00 | 0.00 | 0.00 | 41 | 1015.8 |
| 20260906050041 | 26 | 0 | 0.0 | 6.4 | 0.00 | 0.00 | 0.00 | 40 | 1015.8 |
| 20260906045529 | 25 | 119 | 1.6 | 6.4 | 0.00 | 0.00 | 0.00 | 41 | 1015.7 |
| 20260906045023 | 25 | 360 | 1.6 | 4.8 | 0.00 | 0.00 | 0.00 | 41 | 1015.7 |
| 20260906044546 | 25 | 0 | 0.0 | 4.8 | 0.00 | 0.00 | 0.00 | 42 | 1015.7 |
| 20260906044028 | 25 | 360 | 1.6 | 4.8 | 0.00 | 0.00 | 0.00 | 40 | 1015.6 |
| 20260906043527 | 25 | 360 | 1.6 | 6.4 | 0.00 | 0.00 | 0.00 | 41 | 1015.5 |
| 20260906043047 | 25 | 360 | 3.2 | 6.4 | 0.00 | 0.00 | 0.00 | 41 | 1015.5 |
| 20260906042527 | 25 | 111 | 1.6 | 6.4 | 0.00 | 0.00 | 0.00 | 41 | 1015.4 |
| 20260906042027 | 25 | 110 | 1.6 | 6.4 | 0.00 | 0.00 | 0.00 | 41 | 1015.4 |
| 20260906041541 | 24 | 115 | 1.6 | 4.8 | 0.00 | 0.00 | 0.00 | 42 | 1015.3 |
| 20260906041031 | 24 | 116 | 1.6 | 6.4 | 0.00 | 0.00 | 0.00 | 41 | 1015.2 |
| 20260906040528 | 24 | 116 | 1.6 | 6.4 | 0.00 | 0.00 | 0.00 | 41 | 1015.1 |
| 20260906040100 | 23 | 119 | 0.0 | 3.2 | 0.00 | 0.00 | 0.00 | 42 | 1015.1 |
| 20260906035525 | 23 | 0 | 1.6 | 4.8 | 0.00 | 0.00 | 0.00 | 42 | 1015.2 |
| 20260906035027 | 24 | 0 | 1.6 | 4.8 | 0.00 | 0.00 | 0.00 | 41 | 1015.2 |
| 20260906034553 | 23 | 0 | 0.0 | 0.0 | 0.00 | 0.00 | 0.00 | 43 | 1015.1 |
| 20260906034026 | 23 | 0 | 0.0 | 0.0 | 0.00 | 0.00 | 0.00 | 43 | 1015.1 |
| 20260906033526 | 23 | 0 | 0.0 | 0.0 | 0.00 | 0.00 | 0.00 | 42 | 1015.1 |
| 20260906033044 | 23 | 0 | 0.0 | 0.0 | 0.00 | 0.00 | 0.00 | 42 | 1015.1 |
| 20260906032526 | 23 | 0 | 0.0 | 4.8 | 0.00 | 0.00 | 0.00 | 41 | 1015.0 |
| 20260906032026 | 24 | 0 | 0.0 | 4.8 | 0.00 | 0.00 | 0.00 | 41 | 1015.0 |
| 20260906031549 | 24 | 117 | 0.0 | 4.8 | 0.00 | 0.00 | 0.00 | 40 | 1015.0 |
| 20260906031026 | 24 | 117 | 0.0 | 4.8 | 0.00 | 0.00 | 0.00 | 41 | 1015.1 |
| 20260906030526 | 23 | 0 | 0.0 | 0.0 | 0.00 | 0.00 | 0.00 | 43 | 1014.9 |
| 20260906030046 | 23 | 0 | 0.0 | 0.0 | 0.00 | 0.00 | 0.00 | 44 | 1014.9 |
| 20260906025525 | 23 | 0 | 0.0 | 0.0 | 0.00 | 0.00 | 0.00 | 44 | 1014.9 |
| 20260906025026 | 23 | 0 | 0.0 | 0.0 | 0.00 | 0.00 | 0.00 | 44 | 1014.9 |
| 20260906024543 | 23 | 0 | 0.0 | 0.0 | 0.00 | 0.00 | 0.00 | 44 | 1014.7 |
| 20260906024029 | 23 | 0 | 0.0 | 1.6 | 0.00 | 0.00 | 0.00 | 44 | 1014.6 |
| 20260906023527 | 23 | 0 | 0.0 | 6.4 | 0.00 | 0.00 | 0.00 | 43 | 1014.6 |
| 20260906023049 | 23 | 0 | 3.2 | 6.4 | 0.00 | 0.00 | 0.00 | 43 | 1014.7 |
| 20260906022526 | 23 | 81 | 3.2 | 4.8 | 0.00 | 0.00 | 0.00 | 43 | 1014.6 |
| 20260906022026 | 23 | 51 | 0.0 | 4.8 | 0.00 | 0.00 | 0.00 | 43 | 1014.7 |
| 20260906021602 | 23 | 0 | 0.0 | 0.0 | 0.00 | 0.00 | 0.00 | 43 | 1014.8 |
| 20260906021026 | 23 | 0 | 0.0 | 0.0 | 0.00 | 0.00 | 0.00 | 43 | 1014.8 |
| 20260906020526 | 23 | 0 | 0.0 | 0.0 | 0.00 | 0.00 | 0.00 | 41 | 1014.8 |
| 20260906020055 | 23 | 0 | 0.0 | 4.8 | 0.00 | 0.00 | 0.00 | 43 | 1014.8 |
| 20260906015527 | 24 | 0 | 0.0 | 6.4 | 0.00 | 0.00 | 0.00 | 41 | 1014.7 |
| 20260906015026 | 23 | 0 | 3.2 | 6.4 | 0.00 | 0.00 | 0.00 | 41 | 1014.8 |
| 20260906014552 | 23 | 12 | 4.8 | 6.4 | 0.00 | 0.00 | 0.00 | 44 | 1014.8 |
| 20260906014029 | 23 | 0 | 0.0 | 6.4 | 0.00 | 0.00 | 0.00 | 42 | 1014.8 |
| 20260906013525 | 24 | 0 | 1.6 | 6.4 | 0.00 | 0.00 | 0.00 | 41 | 1014.7 |
| 20260906013045 | 23 | 0 | 0.0 | 6.4 | 0.00 | 0.00 | 0.00 | 40 | 1014.9 |
| 20260906012526 | 23 | 169 | 3.2 | 6.4 | 0.00 | 0.00 | 0.00 | 42 | 1014.7 |
| 20260906012023 | 23 | 169 | 1.6 | 6.4 | 0.00 | 0.00 | 0.00 | 41 | 1014.9 |
| 20260906011542 | 23 | 170 | 3.2 | 6.4 | 0.00 | 0.00 | 0.00 | 42 | 1015.0 |
| 20260906011030 | 23 | 167 | 1.6 | 4.8 | 0.00 | 0.00 | 0.00 | 43 | 1014.9 |
| 20260906010526 | 23 | 165 | 0.0 | 6.4 | 0.00 | 0.00 | 0.00 | 41 | 1014.9 |
| 20260906010044 | 23 | 165 | 1.6 | 6.4 | 0.00 | 0.00 | 0.00 | 45 | 1015.0 |
| 20260906005526 | 23 | 165 | 1.6 | 6.4 | 0.00 | 0.00 | 0.00 | 44 | 1015.0 |
| 20260906005026 | 23 | 0 | 0.0 | 0.0 | 0.00 | 0.00 | 0.00 | 44 | 1014.9 |
| 20260906004554 | 23 | 0 | 0.0 | 3.2 | 0.00 | 0.00 | 0.00 | 44 | 1015.0 |
| 20260906004028 | 24 | 0 | 0.0 | 3.2 | 0.00 | 0.00 | 0.00 | 42 | 1014.9 |
| 20260906003524 | 23 | 165 | 1.6 | 3.2 | 0.00 | 0.00 | 0.00 | 44 | 1015.0 |
| 20260906003047 | 24 | 0 | 0.0 | 3.2 | 0.00 | 0.00 | 0.00 | 44 | 1015.0 |
| 20260906002527 | 24 | 0 | 1.6 | 4.8 | 0.00 | 0.00 | 0.00 | 42 | 1015.0 |
| 20260906002026 | 23 | 165 | 0.0 | 6.4 | 0.00 | 0.00 | 0.00 | 42 | 1014.9 |
| 20260906001544 | 23 | 165 | 3.2 | 6.4 | 0.00 | 0.00 | 0.00 | 45 | 1014.9 |
| 20260906001026 | 23 | 165 | 1.6 | 6.4 | 0.00 | 0.00 | 0.00 | 45 | 1015.0 |
| 20260906000526 | 23 | 165 | 1.6 | 6.4 | 0.00 | 0.00 | 0.00 | 45 | 1015.0 |
| 20260906000040 | 23 | 165 | 4.8 | 6.4 | 0.00 | 0.00 | 0.00 | 44 | 1015.1 |
| 20260905235527 | 24 | 166 | 0.0 | 3.2 | 0.00 | 0.00 | 0.00 | 43 | 1015.1 |
| 20260905235031 | 24 | 0 | 0.0 | 0.0 | 0.00 | 0.00 | 0.00 | 42 | 1015.1 |
| 20260905234549 | 25 | 0 | 0.0 | 3.2 | 0.00 | 0.00 | 0.00 | 40 | 1015.1 |
| 20260905234032 | 25 | 0 | 0.0 | 3.2 | 0.00 | 0.00 | 0.00 | 40 | 1015.2 |
| 20260905233527 | 25 | 0 | 0.0 | 6.4 | 0.00 | 0.00 | 0.00 | 40 | 1015.2 |
| 20260905233044 | 25 | 0 | 0.0 | 6.4 | 0.00 | 0.00 | 0.00 | 41 | 1015.3 |
| 20260905232529 | 24 | 167 | 4.8 | 6.4 | 0.00 | 0.00 | 0.00 | 41 | 1015.3 |
| 20260905232028 | 24 | 168 | 1.6 | 6.4 | 0.00 | 0.00 | 0.00 | 42 | 1015.4 |
| 20260905231542 | 24 | 168 | 1.6 | 6.4 | 0.00 | 0.00 | 0.00 | 42 | 1015.5 |
| 20260905231027 | 24 | 168 | 1.6 | 6.4 | 0.00 | 0.00 | 0.00 | 41 | 1015.5 |
| 20260905230529 | 24 | 0 | 1.6 | 6.4 | 0.00 | 0.00 | 0.00 | 41 | 1015.5 |
| 20260905230053 | 25 | 168 | 1.6 | 8.0 | 0.00 | 0.00 | 0.00 | 41 | 1015.6 |
| 20260905225527 | 24 | 168 | 3.2 | 8.0 | 0.00 | 0.00 | 0.00 | 41 | 1015.6 |
| 20260905225027 | 24 | 169 | 3.2 | 8.0 | 0.00 | 0.00 | 0.00 | 41 | 1015.6 |
| 20260905224549 | 24 | 178 | 1.6 | 6.4 | 0.00 | 0.00 | 0.00 | 41 | 1015.7 |
| 20260905224027 | 24 | 178 | 3.2 | 9.7 | 0.00 | 0.00 | 0.00 | 40 | 1015.7 |
| 20260905223526 | 24 | 180 | 3.2 | 9.7 | 0.00 | 0.00 | 0.00 | 40 | 1015.7 |
| 20260905223050 | 24 | 164 | 6.4 | 9.7 | 0.00 | 0.00 | 0.00 | 40 | 1015.7 |
| 20260905222526 | 25 | 181 | 3.2 | 12.9 | 0.00 | 0.00 | 0.00 | 38 | 1015.7 |
| 20260905222032 | 25 | 304 | 3.2 | 12.9 | 0.00 | 0.00 | 0.00 | 38 | 1015.6 |
| 20260905221548 | 25 | 0 | 0.0 | 4.8 | 0.00 | 0.00 | 0.00 | 39 | 1015.7 |
| 20260905221026 | 25 | 30 | 0.0 | 4.8 | 0.00 | 0.00 | 0.00 | 39 | 1015.6 |
| 20260905220526 | 25 | 35 | 0.0 | 4.8 | 0.00 | 0.00 | 0.00 | 38 | 1015.6 |
| 20260905220043 | 25 | 0 | 1.6 | 4.8 | 0.00 | 0.00 | 0.00 | 40 | 1015.6 |
| 20260905215526 | 25 | 69 | 3.2 | 4.8 | 0.00 | 0.00 | 0.00 | 39 | 1015.6 |
| 20260905215025 | 25 | 69 | 1.6 | 3.2 | 0.00 | 0.00 | 0.00 | 41 | 1015.6 |
| 20260905214547 | 25 | 0 | 1.6 | 3.2 | 0.00 | 0.00 | 0.00 | 40 | 1015.7 |
| 20260905214026 | 25 | 69 | 1.6 | 3.2 | 0.00 | 0.00 | 0.00 | 40 | 1015.6 |
| 20260905213526 | 25 | 0 | 0.0 | 0.0 | 0.00 | 0.00 | 0.00 | 39 | 1015.6 |
| 20260905213041 | 25 | 0 | 0.0 | 3.2 | 0.00 | 0.00 | 0.00 | 39 | 1015.7 |
| 20260905212527 | 26 | 0 | 0.0 | 3.2 | 0.00 | 0.00 | 0.00 | 38 | 1015.7 |
| 20260905212027 | 26 | 66 | 0.0 | 3.2 | 0.00 | 0.00 | 0.00 | 37 | 1015.7 |
| 20260905211548 | 26 | 67 | 1.6 | 4.8 | 0.00 | 0.00 | 0.00 | 37 | 1015.8 |
| 20260905211027 | 26 | 0 | 0.0 | 6.4 | 0.00 | 0.00 | 0.00 | 37 | 1015.8 |
| 20260905210527 | 26 | 0 | 1.6 | 6.4 | 0.00 | 0.00 | 0.00 | 37 | 1015.8 |
| 20260905210100 | 26 | 74 | 3.2 | 6.4 | 0.00 | 0.00 | 0.00 | 37 | 1015.8 |
| 20260905205526 | 26 | 75 | 0.0 | 6.4 | 0.00 | 0.00 | 0.00 | 36 | 1015.8 |
| 20260905205024 | 26 | 74 | 3.2 | 6.4 | 0.00 | 0.00 | 0.00 | 36 | 1015.8 |
| 20260905204542 | 26 | 360 | 0.0 | 3.2 | 0.00 | 0.00 | 0.00 | 36 | 1015.9 |
| 20260905204026 | 26 | 0 | 0.0 | 3.2 | 0.00 | 0.00 | 0.00 | 35 | 1015.7 |
| 20260905203528 | 26 | 360 | 0.0 | 9.7 | 0.00 | 0.00 | 0.00 | 36 | 1015.8 |
| 20260905203045 | 26 | 360 | 3.2 | 9.7 | 0.00 | 0.00 | 0.00 | 35 | 1015.6 |
| 20260905202526 | 26 | 360 | 0.0 | 3.2 | 0.00 | 0.00 | 0.00 | 35 | 1015.6 |
| 20260905202026 | 26 | 0 | 0.0 | 0.0 | 0.00 | 0.00 | 0.00 | 36 | 1015.7 |
| 20260905201540 | 26 | 0 | 0.0 | 9.7 | 0.00 | 0.00 | 0.00 | 35 | 1015.7 |
| 20260905201029 | 27 | 0 | 1.6 | 9.7 | 0.00 | 0.00 | 0.00 | 35 | 1015.7 |
| 20260905200525 | 27 | 360 | 3.2 | 8.0 | 0.00 | 0.00 | 0.00 | 34 | 1015.7 |
| 20260905200052 | 27 | 360 | 3.2 | 9.7 | 0.00 | 0.00 | 0.00 | 35 | 1015.7 |
| 20260905195529 | 27 | 360 | 3.2 | 16.1 | 0.00 | 0.00 | 0.00 | 35 | 1015.7 |
| 20260905195028 | 27 | 360 | 8.0 | 16.1 | 0.00 | 0.00 | 0.00 | 35 | 1015.7 |
| 20260905194548 | 26 | 360 | 8.0 | 12.9 | 0.00 | 0.00 | 0.00 | 36 | 1015.8 |
| 20260905194026 | 26 | 360 | 8.0 | 12.9 | 0.00 | 0.00 | 0.00 | 37 | 1015.7 |
| 20260905193526 | 26 | 360 | 6.4 | 8.0 | 0.00 | 0.00 | 0.00 | 37 | 1015.7 |
| 20260905193044 | 26 | 360 | 4.8 | 8.0 | 0.00 | 0.00 | 0.00 | 38 | 1015.7 |
| 20260905192526 | 26 | 360 | 4.8 | 8.0 | 0.00 | 0.00 | 0.00 | 38 | 1015.8 |
| 20260905192032 | 26 | 360 | 4.8 | 6.4 | 0.00 | 0.00 | 0.00 | 38 | 1015.8 |
| 20260905191542 | 26 | 360 | 3.2 | 6.4 | 0.00 | 0.00 | 0.00 | 38 | 1015.7 |
| 20260905191025 | 26 | 360 | 3.2 | 8.0 | 0.00 | 0.00 | 0.00 | 38 | 1015.8 |
| 20260905190527 | 27 | 360 | 3.2 | 8.0 | 0.00 | 0.00 | 0.00 | 38 | 1015.8 |
| 20260905190041 | 27 | 360 | 3.2 | 8.0 | 0.00 | 0.00 | 0.00 | 38 | 1015.9 |
| 20260905185527 | 27 | 360 | 3.2 | 8.0 | 0.00 | 0.00 | 0.00 | 38 | 1015.9 |
| 20260905185026 | 27 | 360 | 1.6 | 6.4 | 0.00 | 0.00 | 0.00 | 38 | 1015.8 |
| 20260905184553 | 27 | 360 | 1.6 | 3.2 | 0.00 | 0.00 | 0.00 | 38 | 1015.9 |
| 20260905184026 | 27 | 0 | 1.6 | 4.8 | 0.00 | 0.00 | 0.00 | 38 | 1015.9 |
| 20260905183525 | 27 | 360 | 0.0 | 4.8 | 0.00 | 0.00 | 0.00 | 38 | 1015.8 |
| 20260905183047 | 27 | 360 | 0.0 | 6.4 | 0.00 | 0.00 | 0.00 | 38 | 1015.7 |
| 20260905182525 | 27 | 0 | 1.6 | 8.0 | 0.00 | 0.00 | 0.00 | 37 | 1015.7 |
| 20260905182026 | 27 | 360 | 1.6 | 8.0 | 0.00 | 0.00 | 0.00 | 37 | 1015.5 |
| 20260905181549 | 27 | 360 | 4.8 | 8.0 | 0.00 | 0.00 | 0.00 | 37 | 1015.5 |
| 20260905181027 | 27 | 360 | 3.2 | 8.0 | 0.00 | 0.00 | 0.00 | 37 | 1015.5 |
| 20260905180527 | 27 | 360 | 3.2 | 9.7 | 0.00 | 0.00 | 0.00 | 37 | 1015.5 |
| 20260905180048 | 27 | 360 | 4.8 | 9.7 | 0.00 | 0.00 | 0.00 | 37 | 1015.4 |
| 20260905175526 | 27 | 360 | 1.6 | 8.0 | 0.00 | 0.00 | 0.00 | 37 | 1015.5 |
| 20260905175026 | 27 | 360 | 1.6 | 8.0 | 0.00 | 0.00 | 0.00 | 37 | 1015.5 |
| 20260905174545 | 27 | 360 | 3.2 | 8.0 | 0.00 | 0.00 | 0.00 | 37 | 1015.4 |
| 20260905174026 | 27 | 360 | 4.8 | 8.0 | 0.00 | 0.00 | 0.00 | 37 | 1015.5 |
| 20260905173525 | 27 | 360 | 4.8 | 8.0 | 0.00 | 0.00 | 0.00 | 37 | 1015.4 |
| 20260905173041 | 27 | 360 | 1.6 | 8.0 | 0.00 | 0.00 | 0.00 | 37 | 1015.4 |
| 20260905172524 | 27 | 360 | 3.2 | 9.7 | 0.00 | 0.00 | 0.00 | 37 | 1015.3 |
| 20260905172024 | 27 | 360 | 4.8 | 14.5 | 0.00 | 0.00 | 0.00 | 37 | 1015.2 |
| 20260905171559 | 27 | 360 | 6.4 | 17.7 | 0.00 | 0.00 | 0.00 | 37 | 1015.1 |
| 20260905171024 | 28 | 360 | 6.4 | 17.7 | 0.00 | 0.00 | 0.00 | 37 | 1015.1 |
| 20260905170524 | 28 | 360 | 9.7 | 17.7 | 0.00 | 0.00 | 0.00 | 37 | 1015.1 |
| 20260905170040 | 28 | 360 | 8.0 | 16.1 | 0.00 | 0.00 | 0.00 | 37 | 1015.2 |
| 20260905165524 | 28 | 360 | 6.4 | 16.1 | 0.00 | 0.00 | 0.00 | 37 | 1015.1 |
| 20260905165026 | 28 | 360 | 6.4 | 16.1 | 0.00 | 0.00 | 0.00 | 37 | 1015.2 |
| 20260905164541 | 28 | 360 | 6.4 | 16.1 | 0.00 | 0.00 | 0.00 | 37 | 1015.2 |
| 20260905164026 | 28 | 352 | 6.4 | 14.5 | 0.00 | 0.00 | 0.00 | 37 | 1015.2 |
| 20260905163525 | 28 | 30 | 3.2 | 12.9 | 0.00 | 0.00 | 0.00 | 37 | 1015.2 |
| 20260905163047 | 28 | 18 | 6.4 | 12.9 | 0.00 | 0.00 | 0.00 | 37 | 1015.2 |
| 20260905162526 | 28 | 13 | 4.8 | 14.5 | 0.00 | 0.00 | 0.00 | 36 | 1015.1 |
| 20260905162024 | 29 | 352 | 4.8 | 16.1 | 0.00 | 0.00 | 0.00 | 36 | 1015.2 |
| 20260905161543 | 29 | 36 | 6.4 | 19.3 | 0.00 | 0.00 | 0.00 | 35 | 1015.2 |
| 20260905161030 | 29 | 62 | 6.4 | 19.3 | 0.00 | 0.00 | 0.00 | 35 | 1015.1 |
| 20260905160531 | 29 | 5 | 11.3 | 20.9 | 0.00 | 0.00 | 0.00 | 34 | 1015.1 |
| 20260905160050 | 29 | 49 | 11.3 | 20.9 | 0.00 | 0.00 | 0.00 | 34 | 1015.1 |
| 20260905155528 | 30 | 335 | 9.7 | 19.3 | 0.00 | 0.00 | 0.00 | 35 | 1015.1 |
| 20260905155031 | 30 | 342 | 9.7 | 19.3 | 0.00 | 0.00 | 0.00 | 35 | 1015.1 |
| 20260905154554 | 30 | 333 | 6.4 | 20.9 | 0.00 | 0.00 | 0.00 | 35 | 1015.1 |
| 20260905154027 | 30 | 344 | 11.3 | 25.7 | 0.00 | 0.00 | 0.00 | 34 | 1015.2 |
| 20260905153527 | 30 | 337 | 14.5 | 25.7 | 0.00 | 0.00 | 0.00 | 34 | 1015.2 |
| 20260905153044 | 30 | 342 | 9.7 | 29.0 | 0.00 | 0.00 | 0.00 | 33 | 1015.2 |
| 20260905152528 | 30 | 309 | 17.7 | 29.0 | 0.00 | 0.00 | 0.00 | 32 | 1015.2 |
| 20260905152025 | 30 | 342 | 11.3 | 20.9 | 0.00 | 0.00 | 0.00 | 33 | 1015.1 |
| 20260905151543 | 30 | 360 | 9.7 | 27.4 | 0.00 | 0.00 | 0.00 | 35 | 1015.1 |
| 20260905151029 | 30 | 336 | 14.5 | 27.4 | 0.00 | 0.00 | 0.00 | 33 | 1015.1 |
| 20260905150527 | 30 | 32 | 16.1 | 27.4 | 0.00 | 0.00 | 0.00 | 33 | 1015.0 |
| 20260905150051 | 30 | 324 | 14.5 | 25.7 | 0.00 | 0.00 | 0.00 | 33 | 1015.1 |
| 20260905145526 | 30 | 45 | 12.9 | 27.4 | 0.00 | 0.00 | 0.00 | 34 | 1015.1 |
| 20260905145027 | 30 | 333 | 12.9 | 27.4 | 0.00 | 0.00 | 0.00 | 34 | 1015.0 |
| 20260905144552 | 30 | 61 | 8.0 | 20.9 | 0.00 | 0.00 | 0.00 | 35 | 1015.0 |
| 20260905144025 | 30 | 50 | 8.0 | 20.9 | 0.00 | 0.00 | 0.00 | 34 | 1015.0 |
| 20260905143525 | 30 | 13 | 9.7 | 20.9 | 0.00 | 0.00 | 0.00 | 35 | 1015.0 |
| 20260905143044 | 30 | 355 | 11.3 | 20.9 | 0.00 | 0.00 | 0.00 | 34 | 1015.0 |
| 20260905142527 | 30 | 13 | 6.4 | 22.5 | 0.00 | 0.00 | 0.00 | 35 | 1015.0 |
| 20260905142031 | 30 | 319 | 12.9 | 22.5 | 0.00 | 0.00 | 0.00 | 34 | 1015.0 |
| 20260905141547 | 30 | 36 | 8.0 | 24.1 | 0.00 | 0.00 | 0.00 | 34 | 1015.1 |
| 20260905141025 | 30 | 338 | 12.9 | 24.1 | 0.00 | 0.00 | 0.00 | 35 | 1015.0 |
| 20260905140524 | 30 | 11 | 9.7 | 25.7 | 0.00 | 0.00 | 0.00 | 35 | 1015.1 |
| 20260905140046 | 30 | 339 | 12.9 | 27.4 | 0.00 | 0.00 | 0.00 | 34 | 1015.0 |
| 20260905135528 | 30 | 39 | 12.9 | 27.4 | 0.00 | 0.00 | 0.00 | 34 | 1015.0 |
| 20260905135028 | 30 | 337 | 14.5 | 27.4 | 0.00 | 0.00 | 0.00 | 34 | 1015.0 |
| 20260905134549 | 30 | 14 | 11.3 | 29.0 | 0.00 | 0.00 | 0.00 | 35 | 1015.1 |
| 20260905134025 | 30 | 344 | 4.8 | 29.0 | 0.00 | 0.00 | 0.00 | 34 | 1015.1 |
| 20260905133526 | 30 | 5 | 14.5 | 29.0 | 0.00 | 0.00 | 0.00 | 34 | 1015.3 |
| 20260905133050 | 30 | 355 | 8.0 | 25.7 | 0.00 | 0.00 | 0.00 | 34 | 1015.3 |
| 20260905132525 | 30 | 350 | 9.7 | 24.1 | 0.00 | 0.00 | 0.00 | 34 | 1015.3 |
| 20260905132027 | 31 | 40 | 9.7 | 24.1 | 0.00 | 0.00 | 0.00 | 34 | 1015.4 |
| 20260905131546 | 31 | 338 | 9.7 | 22.5 | 0.00 | 0.00 | 0.00 | 34 | 1015.3 |
| 20260905131025 | 30 | 31 | 9.7 | 30.6 | 0.00 | 0.00 | 0.00 | 35 | 1015.3 |
| 20260905130523 | 30 | 32 | 14.5 | 30.6 | 0.00 | 0.00 | 0.00 | 35 | 1015.4 |
| 20260905130040 | 31 | 355 | 9.7 | 24.1 | 0.00 | 0.00 | 0.00 | 35 | 1015.4 |
| 20260905125528 | 30 | 5 | 9.7 | 29.0 | 0.00 | 0.00 | 0.00 | 35 | 1015.5 |
| 20260905125027 | 30 | 11 | 16.1 | 29.0 | 0.00 | 0.00 | 0.00 | 35 | 1015.5 |
| 20260905124548 | 30 | 355 | 14.5 | 27.4 | 0.00 | 0.00 | 0.00 | 34 | 1015.5 |
| 20260905124028 | 31 | 28 | 11.3 | 32.2 | 0.00 | 0.00 | 0.00 | 34 | 1015.6 |
| 20260905123525 | 30 | 346 | 16.1 | 32.2 | 0.00 | 0.00 | 0.00 | 34 | 1015.7 |
| 20260905123048 | 30 | 12 | 14.5 | 29.0 | 0.00 | 0.00 | 0.00 | 35 | 1015.6 |
| 20260905122530 | 30 | 5 | 16.1 | 29.0 | 0.00 | 0.00 | 0.00 | 35 | 1015.7 |
| 20260905122027 | 30 | 5 | 11.3 | 27.4 | 0.00 | 0.00 | 0.00 | 35 | 1015.7 |
| 20260905121544 | 30 | 345 | 14.5 | 27.4 | 0.00 | 0.00 | 0.00 | 35 | 1015.7 |
| 20260905121027 | 31 | 360 | 12.9 | 27.4 | 0.00 | 0.00 | 0.00 | 35 | 1015.8 |
| 20260905120527 | 30 | 342 | 11.3 | 24.1 | 0.00 | 0.00 | 0.00 | 36 | 1015.7 |
| 20260905120044 | 30 | 290 | 14.5 | 25.7 | 0.00 | 0.00 | 0.00 | 35 | 1015.9 |
| 20260905115527 | 30 | 24 | 17.7 | 29.0 | 0.00 | 0.00 | 0.00 | 35 | 1015.9 |
| 20260905115027 | 30 | 25 | 12.9 | 29.0 | 0.00 | 0.00 | 0.00 | 35 | 1015.9 |
| 20260905114605 | 30 | 326 | 16.1 | 32.2 | 0.00 | 0.00 | 0.00 | 35 | 1016.0 |
| 20260905114027 | 30 | 40 | 17.7 | 32.2 | 0.00 | 0.00 | 0.00 | 35 | 1015.9 |
| 20260905113531 | 30 | 42 | 14.5 | 32.2 | 0.00 | 0.00 | 0.00 | 35 | 1015.9 |
| 20260905113043 | 30 | 350 | 16.1 | 32.2 | 0.00 | 0.00 | 0.00 | 35 | 1016.0 |
| 20260905112527 | 30 | 27 | 17.7 | 30.6 | 0.00 | 0.00 | 0.00 | 35 | 1016.1 |
| 20260905112026 | 30 | 32 | 17.7 | 30.6 | 0.00 | 0.00 | 0.00 | 35 | 1016.0 |
| 20260905111542 | 30 | 344 | 16.1 | 35.4 | 0.00 | 0.00 | 0.00 | 36 | 1016.0 |
| 20260905111024 | 30 | 360 | 19.3 | 35.4 | 0.00 | 0.00 | 0.00 | 35 | 1016.1 |
| 20260905110526 | 30 | 331 | 17.7 | 32.2 | 0.00 | 0.00 | 0.00 | 36 | 1016.0 |
| 20260905110042 | 30 | 327 | 12.9 | 25.7 | 0.00 | 0.00 | 0.00 | 34 | 1016.0 |
| 20260905105527 | 30 | 335 | 11.3 | 29.0 | 0.00 | 0.00 | 0.00 | 36 | 1016.1 |
| 20260905105026 | 30 | 5 | 17.7 | 32.2 | 0.00 | 0.00 | 0.00 | 35 | 1016.2 |
| 20260905104551 | 30 | 360 | 12.9 | 32.2 | 0.00 | 0.00 | 0.00 | 35 | 1016.1 |
| 20260905104028 | 30 | 35 | 17.7 | 35.4 | 0.00 | 0.00 | 0.00 | 35 | 1016.0 |
| 20260905103527 | 30 | 44 | 20.9 | 35.4 | 0.00 | 0.00 | 0.00 | 34 | 1015.9 |
| 20260905103048 | 30 | 28 | 16.1 | 35.4 | 0.00 | 0.00 | 0.00 | 34 | 1016.0 |
| 20260905102526 | 30 | 54 | 16.1 | 35.4 | 0.00 | 0.00 | 0.00 | 34 | 1016.0 |
| 20260905102026 | 30 | 360 | 20.9 | 35.4 | 0.00 | 0.00 | 0.00 | 35 | 1015.9 |
| 20260905101543 | 30 | 49 | 19.3 | 35.4 | 0.00 | 0.00 | 0.00 | 36 | 1015.9 |
| 20260905101026 | 30 | 18 | 20.9 | 35.4 | 0.00 | 0.00 | 0.00 | 36 | 1015.9 |
| 20260905100526 | 29 | 28 | 19.3 | 33.8 | 0.00 | 0.00 | 0.00 | 36 | 1015.9 |
| 20260905100042 | 29 | 343 | 20.9 | 33.8 | 0.00 | 0.00 | 0.00 | 36 | 1016.1 |
| 20260905095526 | 29 | 38 | 20.9 | 37.0 | 0.00 | 0.00 | 0.00 | 37 | 1015.9 |
| 20260905095026 | 29 | 55 | 19.3 | 37.0 | 0.00 | 0.00 | 0.00 | 36 | 1016.0 |
| 20260905094558 | 29 | 13 | 19.3 | 35.4 | 0.00 | 0.00 | 0.00 | 36 | 1016.0 |
| 20260905094026 | 30 | 21 | 19.3 | 35.4 | 0.00 | 0.00 | 0.00 | 35 | 1015.9 |
| 20260905093527 | 30 | 51 | 19.3 | 35.4 | 0.00 | 0.00 | 0.00 | 36 | 1016.0 |
| 20260905093046 | 30 | 343 | 16.1 | 33.8 | 0.00 | 0.00 | 0.00 | 35 | 1016.1 |
| 20260905092526 | 29 | 330 | 19.3 | 33.8 | 0.00 | 0.00 | 0.00 | 36 | 1016.1 |
| 20260905092026 | 29 | 355 | 17.7 | 35.4 | 0.00 | 0.00 | 0.00 | 35 | 1016.1 |
| 20260905091546 | 29 | 333 | 16.1 | 35.4 | 0.00 | 0.00 | 0.00 | 36 | 1016.1 |
| 20260905091027 | 29 | 58 | 12.9 | 37.0 | 0.00 | 0.00 | 0.00 | 37 | 1016.2 |
| 20260905090526 | 28 | 30 | 19.3 | 37.0 | 0.00 | 0.00 | 0.00 | 37 | 1016.2 |
| 20260905090047 | 28 | 317 | 17.7 | 37.0 | 0.00 | 0.00 | 0.00 | 36 | 1016.1 |
| 20260905085524 | 28 | 42 | 17.7 | 40.2 | 0.00 | 0.00 | 0.00 | 37 | 1016.1 |
| 20260905085030 | 29 | 344 | 19.3 | 40.2 | 0.00 | 0.00 | 0.00 | 36 | 1016.1 |
| 20260905084546 | 28 | 340 | 20.9 | 38.6 | 0.00 | 0.00 | 0.00 | 35 | 1016.1 |
| 20260905084027 | 28 | 341 | 16.1 | 37.0 | 0.00 | 0.00 | 0.00 | 35 | 1016.2 |
| 20260905083526 | 28 | 55 | 20.9 | 40.2 | 0.00 | 0.00 | 0.00 | 35 | 1016.2 |